Weather Roundup
Issued by NWS Chicago, IL

Home | Current Version | Previous Version | Graphics & Text | Print | Product List | Glossary On
Versions: 1 2 3 4 5 6 7 8 9 10 11 12 13 14 15 16 17 18 19 20 21 22 23 24 25 26 27 28 29 30 31 32 33 34 35 36 37 38 39 40 41 42 43 44 45 46 47 48 49 50
000
NZUS59 KLOT 290210
HRRLOT

CHICAGO AREA WEATHER ROUNDUP
NATIONAL WEATHER SERVICE CHICAGO/ROMEOVILLE IL
900 PM CDT THU AUG 28 2014

NOTE: "FAIR" INDICATES FEW OR NO CLOUDS BELOW 12,000 FEET WITH NO
SIGNIFICANT WEATHER AND/OR OBSTRUCTIONS TO VISIBILITY.

* THESE STATIONS ARE NOT UNDER NWS QUALITY CONTROL. THEY ALSO MAY NOT
  REPORT WEATHER SUCH AS PRECIPITATION OR FOG.

ILZ005-006-012>014-019>023-290300-
NORTHEAST ILLINOIS

CITY           SKY/WX    TMP DP  RH WIND       PRES   REMARKS
OHARE          LGT RAIN  71  61  70 E8        30.06R
MIDWAY         CLOUDY    74  65  73 E7        30.06R
AURORA         LGT RAIN  67  64  90 E5        30.05F
LANSING*       CLOUDY    71  64  79 E5        30.06R
JOLIET*        RAIN      69  65  87 CALM      30.08R
WAUKEGAN       CLOUDY    68  61  78 E3        30.06R
DUPAGE AIRPORT LGT RAIN  68  62  81 E6        30.05S
WHEELING       CLOUDY    70  64  81 SE3       30.07S
KANKAKEE*      CLOUDY    71  66  85 CALM      30.05S
MORRIS*        RAIN      69  68  98 E9        30.04F
LEWIS AIRPORT* LGT RAIN  69  66  90 CALM      30.07R
NORTHERLY IS     N/A     72  63  73 E7          N/A
$$

WIZ051-052-058>065-066-070>072-290300-
SOUTHEAST WISCONSIN

CITY           SKY/WX    TMP DP  RH WIND       PRES   REMARKS
MILWAUKEE      CLOUDY    67  56  67 E8        30.07S
KENOSHA*       CLOUDY    65  60  84 E5        30.07R
RACINE*        CLOUDY    69  58  67 E8        30.09R
BURLINGTON     CLOUDY    63  58  85 E5        30.07R
WAUKESHA       PTCLDY    63  55  77 E7        30.09R
WEST BEND      LGT RAIN  61  54  77 E3        30.08S
$$

INZ001>003-010>013-019-020-290300-
NORTHWEST INDIANA

CITY           SKY/WX    TMP DP  RH WIND       PRES   REMARKS
GARY*          CLOUDY    73  64  73 NE5       30.06S
MICHIGAN CITY* NOT AVBL
RENSSELAER*    NOT AVBL
VALPARAISO     PTCLDY    68  65  90 NE3       30.07S
$$

LMZ740>746-290300-
SOUTHERN LAKE MICHIGAN

STATION/POSITION TIME  SKY/WX   TEMP WIND        PRES    VSBY
                                AIR  DIR/SP/G
                 (UTC)          (F)  (DEG/KT/KT) (MB)    (MI)
HARRISON CRIB    0200            71   80/ 12/ 13   N/A
BURNHAM HARBOR   0200            72   80/  5/  9   N/A
CALUMET HARBOR   0200            72   60/  6/  9 1016.6R
BURNS HARBOR     NOT AVBL
MICHIGAN CITY    0200            70   70/  7/  9   N/A
$$

ABBREVIATIONS USED IN REMARKS
   TC - TEMPERATURE IN CELSIUS
  WCI - WIND CHILL INDEX
   HX - HEAT INDEX
  VSB - VISIBILITY
$$


USA.gov is the U.S. government's official web portal to all federal, state and local government web resources and services.